AMOS-3

Last updated on Sat Apr 13 2024 01:02:37 GMT+0100 (British Summer Time)

1 32794U 08022A 24103.35888267 -.00000044 00000+0 00000+0 0 9991 2 32794 0.0234 131.6661 0001918 209.2594 345.1885 1.00270170 74351
UTC large
Height (km)
Speed (km/s)
/
Latitude / Longitude
Inclination (degrees)
Orbital Period (minutes)
Azimuth
Elevation
Range (km)
Doppler Factor

Next 0 passes for location: London (51.5072 / 0.1276)

Sorry there are no passes over London.